sat.trackr.live / text

‹ back to catalog

STARLINK-33795

NORAD 63457 · 2025-069AA

PAYLOAD ACTIVE UNKNOWN

§ Identity

Operator
Country
US
Launch date
2025-04-04
Launch site
AFWTR
Launch vehicle
Mass (kg)
RCS (m²)

Purposes: comms

External: N2YO · Heavens-Above · Gunter

§ Orbital elements

Epoch: 2026-05-24T10:13:16.399200Z

Period
93.37 min
Inclination
53.1581°
Eccentricity
0.0000809
Mean motion
15.42174118 rev/d
Perigee alt
439.1 km
Apogee alt
440.2 km
Semi-major
6,817.8 km
B*
1.1013e-3
RAAN
148.3100°
Arg perigee
87.5732°
Mean anomaly
272.5367°
Rev number
6,492

§ Raw data

STARLINK-337951 63457U 25069AA  26144.42588425  .00047832  00000+0  11013-2 0  99932 63457  53.1581 148.3100 0000809  87.5732 272.5367 15.42174118 64923

JSON: /api/v1/satellites/63457 · /tle

For live sub-satellite position, see the globe view (requires WebGL).

§ Visibility from observer

Set your observer location to see the next 7 days of passes ≥ 10°. The values pass through the URL so the page stays shareable.

No JS? Fill the form by hand. The geolocation button needs JavaScript.